Simultaneous Nadir Overpasses (SNOs) Predictions

Prediction of SNOs between GOES-17 and FY3D Satellite Orbit:

Table of predicted SNOs for the next 14.0 days since TLE Epoch: 9/9/2023
Index Date Time (GOES-17) GOES-17 Lat,Lon FY3D Lat,Lon Distance(km) Time Diff (sec)
1 09/09/2023 21:06:39 0.01,-104.68 0.31,-103.49 136.98 80
2 09/11/2023 09:28:57 -0.01,-104.71 0.91,-108.85 471.98 80
3 09/12/2023 09:07:52 -0.00,-104.71 -0.07,-104.39 36.38 80
4 09/14/2023 21:11:56 -0.00,-104.69 -0.15,-105.33 73.90 80
5 09/15/2023 20:56:12 -0.00,-104.69 0.84,-100.87 434.89 80
6 09/17/2023 09:18:31 0.00,-104.72 0.32,-106.25 173.54 80
7 09/18/2023 08:57:27 0.00,-104.72 -0.67,-101.79 334.94 80
8 09/19/2023 21:19:54 0.00,-104.69 -0.57,-107.18 284.37 80
9 09/20/2023 21:04:09 0.00,-104.69 0.43,-102.72 224.08 80
10 09/22/2023 09:26:28 0.00,-104.72 0.79,-108.09 384.74 80
